Showing default

ANIK G1, 39127

Orbit data source: Space-Track

ANIK G1, 39127 is a payload satellite owned by Telesat (Loral) (CA) in GEO that was launched on Mon, 15 Apr 2013 UTC via a PROTON-M/BRIZ-M launch vehicle from the Tyuratam Missile And Space Complex (TTMTR). Payload-class satellites include a variety of spacecraft equipped with specific instruments for various scientific and technological missions. These include communications satellites like Starlink; space stations such as the ISS; scientific satellites like the Hubble; Earth observation satellites from companies like Planet Labs, Umbra, and HawkEye 360; GPS; miniature CubeSats for education and research; and military/defense satellites.

Loading next visibility...
Identifier
39127, 2013-014A
Orbit
GEO
Country
Flag of CACA
Related business
Manufacturer
SS/Loral (MDA)
Mission
Operational Commercial Communications
Bus & Motor
SSL-1300, R-4D-15?
Mass
4,905 kg wet, ~2,500 kg dry
Launch date (UTC)
2013-04-15 (12 years ago)
Launch vehicle
PROTON-M/BRIZ-M
Launch site
Tyuratam Missile And Space Complex (TTMTR)
Object type
Payload
Rocket body
Debris
Shape & HBR
Box + 2 Pan, 15.0 m
Radar Cross Section
50.206 m², Large (>1 m²)

Expand to show TLE details & history
Last TLE update: 11 hours ago

TLE from 11 hours ago
0 ANIK G1
1 39127U 13014A   25261.13255376  .00000000  00000-0  00000-0 0  9999
2 39127   0.0254 167.3617 0002906  37.7785  92.5823  1.00269957 45524
Epoch: 2025-09-18T03:10Z
TLE epoch observation values (Epoch: 2025-09-18T03:10:52.644Z)
Latitude
0.03588°
Longitude
-107.26028°
Altitude
35,787.207 km
Speed
3.075 km/s
True Right ascension
19h 51m 01s
True Declination
0° 02' 09"
Sunlit
Object was in daylight at epoch
Visualization orbit readout
Latitude
Unknown
Longitude
Unknown
Altitude
Unknown
Speed
Unknown
Apparent Right ascension
Unknown
Apparent Declination
Unknown
Sunlit
N/A
Visualization observer readout
Local Sidereal Time
07:21:56
Azimuth
Unknown
Elevation
Unknown
Doppler factor
Unknown
Orbital elements
Apogee altitude
35,800.431 km
Perigee altitude
35,775.924 km
Semi-major axis
42,166.315 km
Eccentricity
0.00029
Inclination
0.0254°
RAAN
167.3617°
Arg. of periapsis
37.7785°
True anomaly
92.61557°
Mean anomaly
92.5823°
Eccentric anomaly
92.59893°
Mean motion
0.25067 °/min
Orbital period
1,436.18 mins
BSTAR
0
Loading maneuver chart data...
Computing Atmospheric mass density...
Loading historical data...
Loading historical data...
Loading historical data...
Loading historical data...
Loading historical data...
Loading historical data...
Loading historical data...
Other satellites on launch #14 in the year 2013 (2013-04-15 UTC)

Documentation

Showing up to 5 results
|